{"data":{"norad_id":63401,"epoch":"2026-05-25T01:48:24.057216Z","epoch_age_seconds":64557,"freshness":"FRESH","line1":"1 63401U 25065C   26145.07527844  .00020744  00000+0  76091-3 0  9999","line2":"2 63401  43.0041  35.5679 0001423 268.3972  91.6716 15.27594063 64529","mean_motion":15.27594063,"eccentricity":0.0001423,"inclination_deg":43.0041,"raan_deg":35.5679,"arg_perigee_deg":268.3972,"mean_anomaly_deg":91.6716,"bstar":0.00076091,"rev_number":6452,"period_min":94.265880895873,"perigee_km":482.03064589226,"apogee_km":483.98332747087,"semimajor_km":6861.1439866816,"source":"CELESTRAK","updated_at":"2026-05-25T13:38:19.968100Z"}}